Regional Weather Roundup
Issued by NWS State College, PA

Home | Current Version | Previous Version | Text Only | Print | Product List | Glossary Off
Versions: 1 2 3 4 5 6 7 8 9 10 11 12 13 14 15 16 17 18 19 20 21 22 23 24 25 26 27 28 29 30 31 32 33 34 35 36 37 38 39 40 41 42 43 44 45 46 47 48 49 50

820
ASUS41 KCTP 200410
RWRCTP

REGIONAL WEATHER ROUNDUP
NATIONAL WEATHER SERVICE STATE COLLEGE PA
1100 PM EST SUN FEB 19 2017

Note: "fair" indicates few or no clouds below 12,000 feet with no
significant weather and/or obstructions to visibility.

* = STATION THAT DOES NOT REPORT PRECIPITATION /E.G. RAIN...SNOW...ETC/
    THUNDER OR FOG.

PAZ002>004-007>009-013>016-020>023-029>032-200500-
WESTERN PENNSYLVANIA

CITY           SKY/WX    TMP DP  RH WIND       PRES   REMARKS
ERIE           CLEAR     36  31  82 CALM      30.15R
MEADVILLE      CLEAR     40  32  73 N6        30.13R
FRANKLIN*      CLEAR     43  30  61 CALM      30.14S
NEW CASTLE     FAIR      40  30  67 CALM      30.15R
BEAVER COUNTY  NOT AVBL
BUTLER*        CLEAR     45  27  49 CALM      30.14R
PITTSBURGH INT PTCLDY    49  42  77 SW6       30.14R
PITTSBURGH     CLEAR     49  41  74 W9        30.13S
INDIANA*       PTCLDY    43  36  75 CALM      30.15R
LATROBE        CLEAR     46  45  93 S8        30.15S
WASHINGTON CO* CLEAR     45  43  93 W5        30.17R
$$

PAZ004>006-010>012-017>019-024>028-033>037-041-042-045-046-049>053-200500-
CENTRAL PENNSYLVANIA

CITY           SKY/WX    TMP DP  RH WIND       PRES   REMARKS
BRADFORD       CLEAR     38  32  79 W8        30.09R
DUBOIS         CLEAR     43  29  57 W3        30.10R
CLEARFIELD       N/A    N/A N/A N/A MISG      30.10R
JOHNSTOWN      CLEAR     45  42  89 W9        30.10R
ALTOONA        CLEAR     48  39  71 W9        30.09R
STATE COLLEGE  CLEAR     50  28  42 NW3       30.08R
WILLIAMSPORT   CLEAR     52  30  43 NW12      30.04R
SELINSGROVE    CLEAR     36  31  82 CALM      30.04R
FT INDIANTOWN  CLEAR     58  28  31 W6        30.01R
CAPITAL CITY   CLEAR     57  32  38 W9        30.02S
HARRISBURG     PTCLDY    54  35  48 W7        30.02R
YORK           CLEAR     42  35  76 CALM      30.02S
$$

PAZ038>040-043-044-047-048-054-055-060>062-067>071-200500-
EASTERN PENNSYLVANIA

CITY           SKY/WX    TMP DP  RH WIND       PRES   REMARKS
SCRANTON       CLEAR     48  32  53 N7        30.02R
MOUNT POCONO   CLEAR     43  30  60 NW9       29.97S
ALLENTOWN      CLEAR     50  31  48 N9        30.00R
QUAKERTOWN*    CLEAR     52  32  46 N6        30.00R
READING        CLEAR     57  31  37 NW15      29.99R
LANCASTER      CLEAR     54  36  50 NW6       30.00R
COATESVILLE    CLEAR     52  34  50 W6        30.01S
POTTSTOWN      CLEAR     50  33  52 CALM      30.01R
BLUE BELL      CLEAR     45  34  65 CALM      29.99R
DOYLESTOWN     CLEAR     48  32  53 CALM      29.99R
WILLOW GROVE   NOT AVBL
NORTH PHILA    CLEAR     52  35  52 N7        30.00R
PHILADELPHIA   CLEAR     54  33  45 NW9       29.99R
$$




USA.gov is the U.S. government's official web portal to all federal, state and local government web resources and services.